When you browse on this site, cookies collect data to enhance your experience and personalize the content and advertising you see.
Visit our Privacy Policy to learn more. By continuing to use the site, you agree to this use of cookies and data.
  • In Deutschland
  • Länderverzeichnis
  • Für 7 Tage
  • Wassertemperatur
  • Satellitenkarten
  • Wetterkarte
  • Widgets
  • user-avatar
    Anmelden

    Stündliche Wetter Puke

    Heute, 20 Januar, Sonntag

    Zeit Temperatur Niederschläge Wind Luftdruck Luftfeuchtigkeit
    00:00 +2°C° 0.1 mm 2 m/S 688 mmHg 84%
    01:00 +2°C° 0 mm 2 m/S 688 mmHg 86%
    02:00 +2°C° 0.4 mm 2 m/S 688 mmHg 86%
    03:00 +3°C° 0.4 mm 1 m/S 688 mmHg 87%
    04:00 +3°C° 0.4 mm 1 m/S 688 mmHg 88%
    05:00 +3°C° 1.9 mm 1 m/S 688 mmHg 89%
    06:00 +3°C° 1.9 mm 1 m/S 688 mmHg 91%
    07:00 +3°C° 0 mm 1 m/S 688 mmHg 94%
    08:00 +3°C° 0.4 mm 1 m/S 688 mmHg 94%
    09:00 +3°C° 0.4 mm 1 m/S 688 mmHg 95%
    10:00 +4°C° 0.4 mm 1 m/S 688 mmHg 95%
    11:00 +4°C° 0.1 mm 1 m/S 688 mmHg 95%
    12:00 +4°C° 0.1 mm 2 m/S 689 mmHg 94%
    13:00 +5°C° 0 mm 2 m/S 689 mmHg 92%
    14:00 +5°C° 0.1 mm 1 m/S 689 mmHg 93%
    15:00 +5°C° 0.1 mm 1 m/S 689 mmHg 94%
    16:00 +4°C° 0.1 mm 1 m/S 689 mmHg 94%
    17:00 +4°C° 0 mm 1 m/S 689 mmHg 94%
    18:00 +3°C° 0 mm 1 m/S 689 mmHg 93%
    19:00 +2°C° 0 mm 1 m/S 689 mmHg 93%
    20:00 +2°C° 0 mm 1 m/S 689 mmHg 91%
    21:00 +2°C° 0 mm 1 m/S 689 mmHg 89%
    22:00 +2°C° 0 mm 1 m/S 689 mmHg 87%
    23:00 +2°C° 0 mm 1 m/S 689 mmHg 86%

    Morgen, 21 Januar, Montag

    Zeit Temperatur Niederschläge Wind Luftdruck Luftfeuchtigkeit
    00:00 +2°C° 0 mm 1 m/S 689 mmHg 85%
    01:00 +2°C° 0 mm 1 m/S 689 mmHg 84%
    02:00 -1°C° 0 mm 2 m/S 689 mmHg 83%
    03:00 -1°C° 0 mm 2 m/S 689 mmHg 83%
    04:00 -1°C° 0 mm 2 m/S 689 mmHg 82%
    05:00 -1°C° 0 mm 2 m/S 689 mmHg 82%
    06:00 -1°C° 0 mm 2 m/S 689 mmHg 82%
    07:00 -1°C° 0 mm 2 m/S 689 mmHg 81%
    08:00 +1°C° 0 mm 2 m/S 690 mmHg 81%
    09:00 +3°C° 0 mm 2 m/S 690 mmHg 81%
    10:00 +4°C° 0 mm 2 m/S 691 mmHg 80%
    11:00 +5°C° 0 mm 2 m/S 690 mmHg 79%
    12:00 +5°C° 0 mm 2 m/S 690 mmHg 77%
    13:00 +6°C° 0 mm 2 m/S 690 mmHg 75%
    14:00 +5°C° 0 mm 2 m/S 690 mmHg 78%
    15:00 +4°C° 0 mm 2 m/S 690 mmHg 81%
    16:00 +4°C° 0 mm 2 m/S 690 mmHg 84%
    17:00 +3°C° 0 mm 2 m/S 690 mmHg 85%
    18:00 +2°C° 0 mm 2 m/S 690 mmHg 85%
    19:00 +1°C° 0 mm 2 m/S 690 mmHg 85%
    20:00 +1°C° 0.1 mm 2 m/S 689 mmHg 85%
    21:00 +1°C° 0.1 mm 2 m/S 689 mmHg 84%
    22:00 +1°C° 0.1 mm 2 m/S 689 mmHg 84%
    23:00 +1°C° 0.1 mm 2 m/S 689 mmHg 84%

    übermorgen, 22 Januar, Dienstag

    Zeit Temperatur Niederschläge Wind Luftdruck Luftfeuchtigkeit
    00:00 +1°C° 0.1 mm 2 m/S 689 mmHg 84%
    01:00 +1°C° 0.1 mm 2 m/S 689 mmHg 84%
    02:00 +1°C° 0.1 mm 2 m/S 688 mmHg 84%
    03:00 +1°C° 0.1 mm 2 m/S 688 mmHg 83%
    04:00 +1°C° 0.1 mm 2 m/S 687 mmHg 83%
    05:00 +1°C° 0.2 mm 2 m/S 687 mmHg 83%
    06:00 +1°C° 0.2 mm 2 m/S 687 mmHg 83%
    07:00 +1°C° 0.2 mm 2 m/S 687 mmHg 84%
    08:00 +1°C° 0.3 mm 2 m/S 686 mmHg 84%
    09:00 +2°C° 0.3 mm 2 m/S 686 mmHg 85%
    10:00 +2°C° 0.3 mm 2 m/S 686 mmHg 86%
    11:00 +2°C° 0.9 mm 2 m/S 685 mmHg 87%
    12:00 +2°C° 0.9 mm 2 m/S 685 mmHg 89%
    13:00 +2°C° 0.9 mm 2 m/S 684 mmHg 91%
    14:00 +3°C° 0.4 mm 2 m/S 684 mmHg 90%
    15:00 +4°C° 0.4 mm 1 m/S 683 mmHg 90%
    16:00 +4°C° 0.4 mm 1 m/S 683 mmHg 89%
    17:00 +3°C° 0.4 mm 2 m/S 682 mmHg 89%
    18:00 +3°C° 0.4 mm 2 m/S 682 mmHg 88%
    19:00 +3°C° 0.4 mm 2 m/S 682 mmHg 88%
    20:00 +3°C° 1.4 mm 2 m/S 681 mmHg 89%
    21:00 +3°C° 1.4 mm 1 m/S 681 mmHg 90%
    22:00 +3°C° 1.4 mm 1 m/S 681 mmHg 91%
    23:00 +3°C° 0.5 mm 1 m/S 680 mmHg 89%

    23 Januar, Mittwoch

    Zeit Temperatur Niederschläge Wind Luftdruck Luftfeuchtigkeit
    00:00 +3°C° 0.5 mm 1 m/S 680 mmHg 88%
    01:00 +3°C° 0.5 mm 1 m/S 680 mmHg 87%
    02:00 +2°C° 1.5 mm 2 m/S 679 mmHg 89%
    03:00 +3°C° 1.5 mm 2 m/S 679 mmHg 91%
    04:00 +2°C° 1.5 mm 3 m/S 679 mmHg 93%
    05:00 +2°C° 1.1 mm 3 m/S 679 mmHg 93%
    06:00 +2°C° 1.1 mm 3 m/S 679 mmHg 93%
    07:00 +1°C° 1.1 mm 4 m/S 679 mmHg 93%
    08:00 +1°C° 1.6 mm 4 m/S 679 mmHg 92%
    09:00 +1°C° 1.6 mm 5 m/S 680 mmHg 90%
    10:00 +1°C° 1.6 mm 5 m/S 680 mmHg 89%
    11:00 +2°C° 1.2 mm 5 m/S 680 mmHg 88%
    12:00 +2°C° 1.2 mm 5 m/S 680 mmHg 86%
    13:00 +2°C° 1.2 mm 5 m/S 680 mmHg 85%
    14:00 +3°C° 0.6 mm 4 m/S 680 mmHg 86%
    15:00 +2°C° 0.6 mm 3 m/S 680 mmHg 87%
    16:00 +3°C° 0.6 mm 2 m/S 680 mmHg 88%
    17:00 +3°C° 0.1 mm 2 m/S 680 mmHg 87%
    18:00 +2°C° 0.1 mm 2 m/S 680 mmHg 87%
    19:00 +2°C° 0.1 mm 1 m/S 680 mmHg 87%
    20:00 +2°C° 0 mm 1 m/S 680 mmHg 85%
    21:00 +1°C° 0 mm 2 m/S 680 mmHg 84%
    22:00 +1°C° 0 mm 2 m/S 680 mmHg 82%
    23:00 +1°C° 0 mm 2 m/S 680 mmHg 81%

    24 Januar, Donnerstag

    Zeit Temperatur Niederschläge Wind Luftdruck Luftfeuchtigkeit
    00:00 +1°C° 0 mm 2 m/S 679 mmHg 79%
    01:00 0°C° 0 mm 3 m/S 679 mmHg 78%
    02:00 0°C° 0 mm 3 m/S 679 mmHg 78%
    03:00 0°C° 0 mm 3 m/S 678 mmHg 77%
    04:00 0°C° 0 mm 3 m/S 678 mmHg 76%
    05:00 0°C° 0 mm 3 m/S 678 mmHg 77%
    06:00 -1°C° 0 mm 3 m/S 678 mmHg 78%
    07:00 -2°C° 0 mm 4 m/S 678 mmHg 79%
    08:00 -1°C° 0.1 mm 4 m/S 678 mmHg 80%
    09:00 0°C° 0.1 mm 4 m/S 678 mmHg 81%
    10:00 +1°C° 0.1 mm 4 m/S 678 mmHg 82%
    11:00 +1°C° 0 mm 4 m/S 677 mmHg 81%
    12:00 +3°C° 0 mm 4 m/S 677 mmHg 80%
    13:00 +4°C° 0 mm 4 m/S 677 mmHg 79%
    14:00 +3°C° 0.1 mm 4 m/S 677 mmHg 80%
    15:00 +3°C° 0.1 mm 4 m/S 677 mmHg 82%
    16:00 +2°C° 0.1 mm 3 m/S 677 mmHg 84%
    17:00 +2°C° 0.4 mm 3 m/S 677 mmHg 85%
    18:00 +1°C° 0.4 mm 3 m/S 677 mmHg 86%
    19:00 +1°C° 0.4 mm 3 m/S 678 mmHg 87%
    20:00 +1°C° 0.6 mm 3 m/S 678 mmHg 87%
    21:00 +1°C° 0.6 mm 3 m/S 678 mmHg 87%
    22:00 +1°C° 0.6 mm 3 m/S 678 mmHg 87%
    23:00 0°C° 0.1 mm 3 m/S 678 mmHg 87%

    25 Januar, Freitag

    Zeit Temperatur Niederschläge Wind Luftdruck Luftfeuchtigkeit
    00:00 0°C° 0.1 mm 3 m/S 678 mmHg 86%
    01:00 0°C° 0.1 mm 3 m/S 678 mmHg 86%
    02:00 0°C° 0 mm 3 m/S 677 mmHg 85%
    03:00 -1°C° 0 mm 4 m/S 677 mmHg 84%
    04:00 -1°C° 0 mm 4 m/S 677 mmHg 84%
    05:00 -2°C° 0 mm 4 m/S 677 mmHg 83%
    06:00 -2°C° 0 mm 4 m/S 677 mmHg 82%
    07:00 -2°C° 0 mm 4 m/S 678 mmHg 82%
    08:00 0°C° 0 mm 3 m/S 678 mmHg 82%
    09:00 +1°C° 0 mm 3 m/S 679 mmHg 81%
    10:00 +1°C° 0 mm 3 m/S 679 mmHg 81%
    11:00 +2°C° 0.1 mm 3 m/S 679 mmHg 80%
    12:00 +2°C° 0.1 mm 3 m/S 679 mmHg 79%
    13:00 +2°C° 0.1 mm 3 m/S 678 mmHg 78%
    14:00 +2°C° 0.1 mm 3 m/S 678 mmHg 79%
    15:00 +2°C° 0.1 mm 3 m/S 678 mmHg 80%
    16:00 +2°C° 0.1 mm 2 m/S 678 mmHg 81%
    17:00 +2°C° 0.1 mm 2 m/S 679 mmHg 82%
    18:00 0°C° 0.1 mm 3 m/S 679 mmHg 83%
    19:00 -1°C° 0.1 mm 3 m/S 679 mmHg 83%
    20:00 -1°C° 0 mm 3 m/S 679 mmHg 82%
    21:00 -1°C° 0 mm 3 m/S 679 mmHg 82%
    22:00 -2°C° 0 mm 3 m/S 679 mmHg 81%
    23:00 -2°C° 0 mm 3 m/S 680 mmHg 81%
    Mehr zeigen